Location: skyray
(25.0337°N, 121.3738°E)
Time: 01:40:03
(UTC+08:00)

ISS - Visible Passes

Search period start: 18 May 2021 00:00
Search period end: 28 May 2021 00:00
Orbit: 417 x 422 km, 51.6° (Epoch: 17 May)

Date Brightness Start Highest point End Pass type
(mag) Time Alt. Az. Time Alt. Az. Time Alt. Az.
18 May -1.4 02:54:22 25° NE 02:54:22 25° NE 02:57:10 10° ESE visible
18 May -2.2 04:28:44 10° W 04:30:57 16° SW 04:33:10 10° SSW visible
18 May -0.2 19:30:32 10° WNW 19:31:37 11° NW 19:32:41 10° NNW visible
